• In Hungary
  • List of Countries
  • For 7 days
  • Water Temperature
  • Satellite Maps
  • Weather Map
  • News
  • Weather Widgets
  • user-avatar
    Login

    Hourly Weather Kuzhuntay

    Today, 23 October, Tuesday

    Time Temperature Precipitation Wind Pressure Humidity
    00:00 +5°C° 0 mm 1 mps 757 mmHg 60%
    01:00 +5°C° 0 mm 1 mps 756 mmHg 61%
    02:00 +5°C° 0 mm 1 mps 756 mmHg 62%
    03:00 +4°C° 0 mm 1 mps 756 mmHg 64%
    04:00 +4°C° 0 mm 1 mps 756 mmHg 65%
    05:00 +4°C° 0 mm 1 mps 755 mmHg 67%
    06:00 +4°C° 0 mm 1 mps 755 mmHg 68%
    07:00 +3°C° 0 mm 2 mps 755 mmHg 70%
    08:00 +5°C° 0 mm 2 mps 755 mmHg 64%
    09:00 +6°C° 0 mm 2 mps 755 mmHg 59%
    10:00 +8°C° 0 mm 2 mps 755 mmHg 53%
    11:00 +10°C° 0 mm 3 mps 754 mmHg 48%
    12:00 +11°C° 0 mm 3 mps 753 mmHg 44%
    13:00 +13°C° 0 mm 4 mps 753 mmHg 39%
    14:00 +13°C° 0 mm 4 mps 752 mmHg 40%
    15:00 +13°C° 0 mm 3 mps 752 mmHg 42%
    16:00 +13°C° 0 mm 3 mps 751 mmHg 43%
    17:00 +12°C° 0 mm 3 mps 751 mmHg 49%
    18:00 +11°C° 0 mm 3 mps 751 mmHg 55%
    19:00 +10°C° 0 mm 3 mps 750 mmHg 61%
    20:00 +10°C° 0 mm 4 mps 750 mmHg 61%
    21:00 +11°C° 0 mm 4 mps 750 mmHg 62%
    22:00 +10°C° 0 mm 5 mps 750 mmHg 62%
    23:00 +10°C° 0 mm 5 mps 749 mmHg 63%

    Tomorrow, 24 October, Wednesday

    Time Temperature Precipitation Wind Pressure Humidity
    00:00 +10°C° 0 mm 5 mps 749 mmHg 64%
    01:00 +10°C° 0 mm 5 mps 748 mmHg 65%
    02:00 +10°C° 0.1 mm 6 mps 748 mmHg 69%
    03:00 +9°C° 0.1 mm 6 mps 748 mmHg 72%
    04:00 +9°C° 0.1 mm 6 mps 748 mmHg 76%
    05:00 +9°C° 0.2 mm 6 mps 747 mmHg 77%
    06:00 +9°C° 0.2 mm 6 mps 747 mmHg 79%
    07:00 +8°C° 0.2 mm 6 mps 747 mmHg 81%
    08:00 +9°C° 0 mm 7 mps 747 mmHg 77%
    09:00 +10°C° 0 mm 7 mps 746 mmHg 73%
    10:00 +11°C° 0 mm 7 mps 746 mmHg 69%
    11:00 +11°C° 0 mm 7 mps 746 mmHg 66%
    12:00 +12°C° 0 mm 7 mps 746 mmHg 63%
    13:00 +14°C° 0 mm 7 mps 745 mmHg 60%
    14:00 +14°C° 0 mm 6 mps 745 mmHg 59%
    15:00 +14°C° 0 mm 5 mps 745 mmHg 58%
    16:00 +15°C° 0 mm 5 mps 744 mmHg 57%
    17:00 +14°C° 0 mm 4 mps 744 mmHg 59%
    18:00 +13°C° 0 mm 4 mps 745 mmHg 61%
    19:00 +12°C° 0 mm 4 mps 745 mmHg 63%
    20:00 +12°C° 0 mm 4 mps 745 mmHg 64%
    21:00 +11°C° 0 mm 4 mps 745 mmHg 65%
    22:00 +11°C° 0 mm 4 mps 745 mmHg 66%
    23:00 +10°C° 0 mm 4 mps 745 mmHg 67%

    Day after tomorrow, 25 October, Thursday

    Time Temperature Precipitation Wind Pressure Humidity
    00:00 +10°C° 0 mm 4 mps 745 mmHg 69%
    01:00 +10°C° 0 mm 4 mps 744 mmHg 70%
    02:00 +10°C° 0 mm 4 mps 744 mmHg 71%
    03:00 +8°C° 0 mm 4 mps 744 mmHg 71%
    04:00 +8°C° 0 mm 4 mps 744 mmHg 72%
    05:00 +8°C° 0 mm 4 mps 744 mmHg 73%
    06:00 +8°C° 0 mm 4 mps 744 mmHg 73%
    07:00 +8°C° 0 mm 5 mps 744 mmHg 74%
    08:00 +10°C° 0 mm 6 mps 744 mmHg 67%
    09:00 +12°C° 0 mm 7 mps 743 mmHg 60%
    10:00 +13°C° 0 mm 8 mps 743 mmHg 53%
    11:00 +16°C° 0 mm 9 mps 743 mmHg 47%
    12:00 +17°C° 0 mm 9 mps 742 mmHg 42%
    13:00 +19°C° 0 mm 10 mps 742 mmHg 37%
    14:00 +19°C° 0 mm 9 mps 741 mmHg 37%
    15:00 +19°C° 0 mm 9 mps 741 mmHg 38%
    16:00 +20°C° 0 mm 8 mps 740 mmHg 38%
    17:00 +18°C° 0 mm 9 mps 740 mmHg 38%
    18:00 +18°C° 0 mm 9 mps 740 mmHg 39%
    19:00 +17°C° 0 mm 9 mps 740 mmHg 40%
    20:00 +17°C° 0 mm 9 mps 739 mmHg 40%
    21:00 +16°C° 0 mm 10 mps 739 mmHg 40%
    22:00 +16°C° 0 mm 10 mps 739 mmHg 40%
    23:00 +16°C° 0 mm 10 mps 738 mmHg 40%

    26 October, Friday

    Time Temperature Precipitation Wind Pressure Humidity
    00:00 +16°C° 0 mm 10 mps 738 mmHg 40%
    01:00 +16°C° 0 mm 10 mps 738 mmHg 41%
    02:00 +16°C° 0 mm 10 mps 737 mmHg 41%
    03:00 +16°C° 0 mm 10 mps 737 mmHg 41%
    04:00 +17°C° 0 mm 10 mps 736 mmHg 41%
    05:00 +17°C° 0 mm 10 mps 736 mmHg 42%
    06:00 +16°C° 0 mm 9 mps 736 mmHg 43%
    07:00 +16°C° 0 mm 9 mps 736 mmHg 45%
    08:00 +16°C° 0 mm 8 mps 737 mmHg 48%
    09:00 +16°C° 0 mm 8 mps 737 mmHg 51%
    10:00 +15°C° 0 mm 7 mps 738 mmHg 55%
    11:00 +14°C° 0 mm 6 mps 738 mmHg 58%
    12:00 +13°C° 0 mm 6 mps 739 mmHg 61%
    13:00 +11°C° 0 mm 6 mps 740 mmHg 64%
    14:00 +11°C° 0 mm 6 mps 740 mmHg 59%
    15:00 +12°C° 0 mm 5 mps 741 mmHg 54%
    16:00 +12°C° 0 mm 5 mps 741 mmHg 49%
    17:00 +11°C° 0 mm 4 mps 742 mmHg 51%
    18:00 +10°C° 0 mm 4 mps 742 mmHg 53%
    19:00 +10°C° 0 mm 3 mps 742 mmHg 54%
    20:00 +9°C° 0 mm 3 mps 743 mmHg 55%
    21:00 +8°C° 0 mm 4 mps 743 mmHg 55%
    22:00 +8°C° 0 mm 4 mps 744 mmHg 55%
    23:00 +9°C° 0 mm 3 mps 744 mmHg 56%

    27 October, Saturday

    Time Temperature Precipitation Wind Pressure Humidity
    00:00 +8°C° 0 mm 3 mps 744 mmHg 57%
    01:00 +8°C° 0 mm 3 mps 744 mmHg 58%
    02:00 +8°C° 0 mm 3 mps 745 mmHg 59%
    03:00 +8°C° 0 mm 3 mps 745 mmHg 60%
    04:00 +7°C° 0 mm 3 mps 745 mmHg 61%
    05:00 +7°C° 0 mm 3 mps 745 mmHg 62%
    06:00 +7°C° 0 mm 3 mps 745 mmHg 63%
    07:00 +5°C° 0 mm 3 mps 746 mmHg 64%
    08:00 +6°C° 0 mm 4 mps 746 mmHg 61%
    09:00 +6°C° 0 mm 5 mps 746 mmHg 59%
    10:00 +7°C° 0 mm 6 mps 747 mmHg 57%
    11:00 +7°C° 0 mm 6 mps 747 mmHg 54%
    12:00 +8°C° 0 mm 7 mps 747 mmHg 51%
    13:00 +8°C° 0 mm 7 mps 747 mmHg 48%
    14:00 +8°C° 0 mm 7 mps 748 mmHg 47%
    15:00 +6°C° 0 mm 7 mps 748 mmHg 45%
    16:00 +6°C° 0 mm 7 mps 748 mmHg 44%
    17:00 +5°C° 0 mm 6 mps 749 mmHg 47%
    18:00 +5°C° 0 mm 5 mps 750 mmHg 50%
    19:00 +4°C° 0 mm 4 mps 750 mmHg 54%
    20:00 +4°C° 0 mm 4 mps 751 mmHg 58%
    21:00 +4°C° 0 mm 4 mps 751 mmHg 63%
    22:00 +4°C° 0 mm 4 mps 752 mmHg 67%
    23:00 +3°C° 0 mm 4 mps 752 mmHg 70%

    28 October, Sunday

    Time Temperature Precipitation Wind Pressure Humidity
    00:00 +3°C° 0 mm 4 mps 753 mmHg 74%
    01:00 +1°C° 0 mm 4 mps 754 mmHg 77%
    02:00 +1°C° 0 mm 4 mps 754 mmHg 79%
    03:00 +1°C° 0 mm 4 mps 755 mmHg 80%
    04:00 0°C° 0 mm 4 mps 756 mmHg 82%
    05:00 0°C° 0 mm 4 mps 756 mmHg 83%
    06:00 -1°C° 0 mm 4 mps 757 mmHg 84%
    07:00 0°C° 0 mm 3 mps 758 mmHg 85%
    08:00 0°C° 0 mm 4 mps 758 mmHg 77%
    09:00 +3°C° 0 mm 4 mps 759 mmHg 69%
    10:00 +3°C° 0 mm 5 mps 759 mmHg 62%
    11:00 +5°C° 0 mm 5 mps 759 mmHg 57%
    12:00 +5°C° 0 mm 6 mps 759 mmHg 52%
    13:00 +8°C° 0 mm 6 mps 759 mmHg 47%
    14:00 +8°C° 0 mm 6 mps 759 mmHg 49%
    15:00 +8°C° 0 mm 6 mps 760 mmHg 51%
    16:00 +8°C° 0 mm 6 mps 760 mmHg 53%
    17:00 +8°C° 0 mm 6 mps 760 mmHg 55%
    18:00 +7°C° 0 mm 6 mps 760 mmHg 57%
    19:00 +7°C° 0 mm 6 mps 760 mmHg 58%
    20:00 +7°C° 0 mm 6 mps 760 mmHg 57%
    21:00 +6°C° 0 mm 7 mps 760 mmHg 56%
    22:00 +6°C° 0 mm 7 mps 760 mmHg 55%
    23:00 +6°C° 0 mm 7 mps 761 mmHg 54%

    29 October, Monday

    Time Temperature Precipitation Wind Pressure Humidity
    00:00 +6°C° 0 mm 7 mps 761 mmHg 52%
    01:00 +6°C° 0 mm 7 mps 761 mmHg 51%
    02:00 +6°C° 0 mm 7 mps 761 mmHg 53%
    03:00 +6°C° 0 mm 7 mps 761 mmHg 55%
    04:00 +5°C° 0 mm 7 mps 762 mmHg 57%
    05:00 +5°C° 0 mm 7 mps 762 mmHg 61%
    06:00 +5°C° 0 mm 7 mps 761 mmHg 65%
    07:00 +5°C° 0 mm 7 mps 761 mmHg 69%
    08:00 +6°C° 0 mm 7 mps 762 mmHg 66%
    09:00 +7°C° 0 mm 8 mps 762 mmHg 63%
    10:00 +9°C° 0 mm 8 mps 762 mmHg 60%
    11:00 +10°C° 0 mm 8 mps 762 mmHg 55%
    12:00 +11°C° 0 mm 8 mps 762 mmHg 51%
    13:00 +12°C° 0 mm 9 mps 762 mmHg 46%
    14:00 +12°C° 0 mm 8 mps 762 mmHg 45%
    15:00 +12°C° 0 mm 7 mps 761 mmHg 43%
    16:00 +12°C° 0 mm 7 mps 761 mmHg 42%
    17:00 +11°C° 0 mm 7 mps 761 mmHg 44%
    18:00 +11°C° 0 mm 6 mps 761 mmHg 47%
    19:00 +10°C° 0 mm 6 mps 761 mmHg 49%
    20:00 +10°C° 0 mm 6 mps 761 mmHg 49%
    21:00 +10°C° 0 mm 6 mps 762 mmHg 49%
    22:00 +9°C° 0 mm 7 mps 762 mmHg 50%
    23:00 +9°C° 0 mm 6 mps 762 mmHg 50%
    Show more